Tracking 25195 objects as of 20-Jan-2022
HD Live streaming from Space Station
objects crossing your sky now

COSMOS 2209

Track COSMOS 2209 now!
COSMOS 2209 is classified as:


NORAD ID: 22112
Int'l Code: 1992-059A
Perigee: 35,769.5 km
Apogee: 35,839.1 km
Inclination: 14.6 °
Period: 1,436.6 minutes
Semi major axis: 42175 km
RCS: 5.0119 m2 (large)
Launch date: September 10, 1992
Source: Commonwealth of Independent States (former USSR) (CIS)
Launch site: TYURATAM MISSILE AND SPACE COMPLEX (TTMTR)
aabbcc
Your satellite tracking list
Your tracking list is empty




NASA's NSSDC Master Catalog

Two Line Element Set (TLE):
1 22112U 92059A   22019.73594882 -.00000250  00000-0  00000-0 0  9991
2 22112  14.6291 355.0993 0008248 327.3126  26.9798  1.00234099107471
Source of the keplerian elements: AFSPC